DW7262 La Rochelle FR current weather conditions

sailwx.info

Wind from 031

Air temperature 11.1° C
Dewpoint 9.2° C

Last reported at 2015-Sep-04 01:47 UTC.
Time now 2015-Sep-04 05:53 UTC

Location: N 45°57' W 001°22'.
View on Google Maps.

See reports from other nearby stations

  
Tides and Currents Weather Stations Pressure Air Temp Water Temp Dewpoint Dewpoint Depression Visibility Wind Speed Wind Dir Waves Ship Positions
date/time (UTC)wind fromknots sea level pressurealtimeterstation pressurevisibilityair tempwater tempwave heightnotes
2015-Sep-04 01:47 031 11.1
2015-Sep-04 01:36 032 11.7
2015-Sep-04 01:26 032 11.7
2015-Sep-04 01:17 032 11.7
2015-Sep-04 01:07 032 11.7
2015-Sep-04 00:57 032 12.2
2015-Sep-04 00:35 032 12.8
2015-Sep-04 00:25 032 12.8
2015-Sep-04 00:15 032 13.3
2015-Sep-03 23:53 032 13.9
2015-Sep-03 23:43 032 13.9
2015-Sep-03 23:33 032 13.9
2015-Sep-03 23:00 042 15.0
2015-Sep-03 22:50 352 15.0
2015-Sep-03 22:40 001 14.4
2015-Sep-03 22:30 042 15.0
2015-Sep-03 22:08 319 1 gusting 5 15.0
2015-Sep-03 21:58 326 2 gusting 6 15.6
2015-Sep-03 21:48 317 1 gusting 6 15.6
2015-Sep-03 21:03 303 2 gusting 7 15.6
2015-Sep-03 20:29 333 3 gusting 7 15.6
2015-Sep-03 20:19 337 2 gusting 7 15.6
2015-Sep-03 20:09 317 2 gusting 7 15.6
2015-Sep-03 19:59 334 2 gusting 4 15.6
2015-Sep-03 16:30 298 4 gusting 9 17.8
2015-Sep-03 16:20 347 4 gusting 9 17.8
2015-Sep-03 15:49 318 4 gusting 10 17.8
2015-Sep-03 15:38 304 5 gusting 10 17.8
2015-Sep-03 15:06 290 5 gusting 10 17.8
2015-Sep-03 14:55 314 5 gusting 11 17.8
2015-Sep-03 14:00 293 5 gusting 10 18.3
2015-Sep-03 13:50 283 5 gusting 11 18.3
2015-Sep-03 13:30 302 5 gusting 10 18.3
2015-Sep-03 13:20 322 4 gusting 12 18.3
2015-Sep-03 13:10 333 6 gusting 11 18.3
2015-Sep-03 13:00 293 6 gusting 12 17.8
2015-Sep-03 12:28 329 6 gusting 13 18.3
2015-Sep-03 11:56 309 5 gusting 12 18.3
2015-Sep-03 11:22 347 3 gusting 10 18.9
2015-Sep-03 11:12 035 5 gusting 10 18.3
2015-Sep-03 10:15 041 3 gusting 9 17.8
2015-Sep-03 09:46 047 4 gusting 8 17.2
2015-Sep-03 09:13 066 4 gusting 9 16.7
2015-Sep-03 08:53 041 4 gusting 7 16.7
2015-Sep-03 08:21 044 4 gusting 10 16.1
2015-Sep-03 08:11 001 5 gusting 10 16.1
2015-Sep-03 07:51 033 5 gusting 9 15.6
2015-Sep-03 07:29 032 5 gusting 10 15.6
2015-Sep-03 07:19 030 5 gusting 10 15.0
2015-Sep-03 07:09 025 6 gusting 10 15.0
2015-Sep-03 06:59 041 5 gusting 9 15.0
2015-Sep-03 06:37 025 2 gusting 5 13.9
2015-Sep-03 06:14 030 1 gusting 4 13.9
2015-Sep-03 01:16 059 15.0
2015-Sep-03 00:54 039 2 gusting 7 15.0
2015-Sep-03 00:32 034 2 gusting 7 15.0
2015-Sep-03 00:10 029 1 gusting 3 15.0
2015-Sep-02 22:53 018 1 gusting 3 15.6
2015-Sep-02 22:44 023 1 gusting 3 15.6
2015-Sep-02 22:11 352 1 gusting 6 15.6
2015-Sep-02 22:01 349 2 gusting 7 16.1
2015-Sep-02 20:44 314 3 gusting 6 16.7
2015-Sep-02 20:34 348 3 gusting 6 16.7
2015-Sep-02 20:01 006 2 gusting 6 16.7
2015-Sep-02 19:50 326 2 gusting 5 16.7
2015-Sep-02 19:41 338 2 gusting 5 16.7
2015-Sep-02 18:55 343 4 gusting 10 17.2
2015-Sep-02 18:45 350 5 gusting 13 17.2
2015-Sep-02 18:23 319 5 gusting 11 17.8
2015-Sep-02 18:13 338 6 gusting 11 18.3
2015-Sep-02 18:03 350 6 gusting 6 18.3